Flag for U.S.A. Weather past 2 weeks in Garden Grove, California, U.S.A.

Now
68 °F

Clear.


Feels Like: 68 °F
Forecast: 59 / 89 °F
Wind: No wind

Location: Fullerton Municipal Airport

Current Time: Mar 27, 2015 at 12:14:20 AM

Latest Report: Mar 26, 2015 at 11:53 PM


Visibility: 10 mi

Pressure: 30.03 "Hg

Humidity: 40%

Dew point: 43 °F

Location of Garden GroveLocation

Historic Weather in Garden Grove — Graph

°F

Garden Grove temperature yesterday

Maximum temperature yesterday: 95 °F (at 1:53 PM)
Minimum temperature yesterday: 56 °F (at 6:53 AM)
Average temperature yesterday: 76 °F

Past Weeks' High & Low Weather Summary

 TemperatureHumidityPressure
High96 °F (Mar 14, 2:53 PM)86% (Mar 21, 1:53 AM)30.18 "Hg (Mar 21, 1:53 AM)
Low54 °F (Mar 12, 5:53 AM)7% (Mar 26, 1:53 PM)29.85 "Hg (Mar 16, 5:53 PM)
Average71 °F49%30.01 "Hg
* Reported Mar 11 10:53 PM — Mar 26 10:53 PM, Garden Grove, Weather by CustomWeather, © 2015

Note: Actual official high and low records may vary slightly from our data, if they occured in-between our weather recording intervals... More about our weather records

Advertising

Garden Grove weather history for previous 24 hours

 ConditionsComfort  
Time TempWeatherWind HumidityBarometerVisibility
10:53 PM
Thu, Mar 26
70 °FClear.No wind34%30.03 "Hg10 mi
9:53 PM74 °FClear.No wind27%30.02 "Hg10 mi
8:53 PM76 °FClear.No wind21%30.01 "Hg10 mi
7:53 PM81 °FSunny.No wind15%30.00 "Hg10 mi
6:53 PM84 °FSunny.3 mph13%29.98 "Hg10 mi
5:53 PM89 °FSunny.8 mph11%29.96 "Hg10 mi
4:53 PM94 °FSunny.8 mph11%29.96 "Hg10 mi
3:53 PM93 °FSunny.7 mph10%29.96 "Hg10 mi
2:53 PM95 °FSunny.9 mph10%29.98 "Hg10 mi
1:53 PM95 °FSunny.8 mph7%30.00 "Hg10 mi
12:53 PM94 °FSunny.7 mph8%30.03 "Hg10 mi
11:53 AM92 °FSunny.8 mph8%30.06 "Hg10 mi
10:53 AM85 °FSunny.No wind22%30.06 "Hg10 mi
9:53 AM78 °FSunny.3 mph31%30.07 "Hg10 mi
8:53 AM70 °FSunny.No wind49%30.07 "Hg10 mi
7:53 AM62 °FSunny.No wind67%30.06 "Hg10 mi
6:53 AM56 °FClear.No wind81%30.04 "Hg10 mi
5:53 AM58 °FClear.No wind72%30.03 "Hg10 mi
4:53 AM58 °FClear.No wind78%30.03 "Hg10 mi
3:53 AM59 °FClear.No wind72%30.03 "Hg10 mi
2:53 AM61 °FClear.No wind67%30.03 "Hg10 mi
1:53 AM61 °FClear.No wind60%30.03 "Hg10 mi
12:53 AM63 °FClear.No wind58%30.03 "Hg10 mi
Weather by CustomWeather, © 2015

See weather overviewHow to use our weather pages